TimeCST,TemperatureF,Dew PointF,Humidity,Sea Level PressureIn,VisibilityMPH,Wind Direction,Wind SpeedMPH,Gust SpeedMPH,PrecipitationIn,Events,Conditions,WindDirDegrees,DateUTC
12:53 AM,35.1,28.0,76,30.27,10.0,North,4.6,-,N/A,,Clear,350,2012-12-13 06:53:00
1:53 AM,37.0,27.0,67,30.26,10.0,Calm,Calm,-,N/A,,Clear,0,2012-12-13 07:53:00
2:53 AM,33.1,28.9,85,30.27,10.0,Calm,Calm,-,N/A,,Clear,0,2012-12-13 08:53:00
3:53 AM,33.1,28.9,85,30.27,10.0,NNW,3.5,-,N/A,,Clear,330,2012-12-13 09:53:00
4:53 AM,33.1,27.0,78,30.28,10.0,Calm,Calm,-,N/A,,Clear,0,2012-12-13 10:53:00
5:53 AM,33.1,27.0,78,30.29,10.0,North,4.6,-,N/A,,Clear,360,2012-12-13 11:53:00
6:53 AM,34.0,27.0,75,30.32,10.0,North,4.6,-,N/A,,Clear,360,2012-12-13 12:53:00
7:53 AM,37.9,30.0,73,30.34,10.0,NNE,4.6,-,N/A,,Clear,20,2012-12-13 13:53:00
8:53 AM,44.1,33.1,65,30.35,10.0,NNE,5.8,-,N/A,,Clear,30,2012-12-13 14:53:00
9:53 AM,50.0,36.0,59,30.35,10.0,NE,5.8,-,N/A,,Clear,40,2012-12-13 15:53:00
10:53 AM,55.0,39.0,55,30.34,10.0,NNE,3.5,-,N/A,,Clear,20,2012-12-13 16:53:00
11:53 AM,57.9,39.9,51,30.31,10.0,ENE,5.8,-,N/A,,Clear,60,2012-12-13 17:53:00
12:53 PM,60.1,37.0,42,30.27,10.0,Variable,4.6,-,N/A,,Clear,0,2012-12-13 18:53:00
1:53 PM,62.1,37.0,39,30.25,10.0,Calm,Calm,-,N/A,,Clear,0,2012-12-13 19:53:00
2:53 PM,57.9,43.0,58,30.25,10.0,SSW,5.8,-,N/A,,Clear,200,2012-12-13 20:53:00
3:53 PM,57.0,44.1,62,30.25,10.0,SW,5.8,-,N/A,,Clear,220,2012-12-13 21:53:00
6:53 PM,44.6,42.8,93,30.27,10.0,Calm,Calm,-,N/A,,Clear,0,2012-12-14 00:53:00
7:53 PM,44.1,42.1,93,30.27,10.0,Calm,Calm,-,N/A,,Clear,0,2012-12-14 01:53:00
8:53 PM,42.1,39.9,92,30.28,6.0,Calm,Calm,-,N/A,,Clear,0,2012-12-14 02:53:00
9:53 PM,39.9,39.0,97,30.30,5.0,Calm,Calm,-,N/A,,Clear,0,2012-12-14 03:53:00
10:53 PM,39.9,39.0,97,30.30,5.0,Calm,Calm,-,N/A,,Clear,0,2012-12-14 04:53:00
11:53 PM,37.4,37.4,100,30.28,7.0,Calm,Calm,-,N/A,,Clear,0,2012-12-14 05:53:00